EUTELSAT 53A

Last updated on Mon Jun 22 2026 00:03:05 GMT+0000 (Coordinated Universal Time)

1 40277U 14064A 26172.61448373 .00000097 00000+0 00000+0 0 9993 2 40277 0.0138 311.9469 0001049 229.1735 2.8968 1.00271602 41614
UTC large
Height (km)
Speed (km/s)
/
Latitude / Longitude
Inclination (degrees)
Orbital Period (minutes)
Azimuth
Elevation
Range (km)
Doppler Factor

Next 0 passes for location: London (51.5072 / 0.1276)

No passes found over London.
EUTELSAT 53A